アトラス-アフリカーノ彗星

C/2019 F1 ( ATLAS-Africano )

English version
Home page
Updated on October 14, 2023

---------------------------------------------------------------------

・ プロフィール

発見日 2019年3月28日、29日
発見光度 18.3等、18.4等
発見者 Asteroid Terrestrial-Impact Last Alert System (ATLAS) search program, B. M. Africano (Mount Lemmon Survey)

・ 写真集

・ 軌道要素

Epoch 2023 Sept. 13.0 TT = JDT 2460200.5
T 2021 June 22.69702 TT                                 Rudenko
q   3.6053110            (2000.0)            P               Q
z  -0.0006508      Peri.  251.33325     +0.09601784     +0.85661828
 +/-0.0000004      Node    38.66382     -0.27434677     +0.51233930
e   1.0023463      Incl.   54.23540     -0.95682518     -0.06093903
>From 1933 observations 2019 Feb. 8-2023 Aug. 24, mean residual 0".7.

・ 星図

・ 光度変化

        m1 = 8.0 + 5 logΔ + 7.0 log r(t + 150)

---------------------------------------------------------------------

軌道要素はM.P.E.C. 2023-Q150に掲載されたものです。
星図はステラナビゲータ Ver.10 (アストロアーツ) で作成したものです。
光度グラフはComet for Windowsで作成したものです。

---------------------------------------------------------------------

Copyright(C) Seiichi Yoshida (comet@aerith.net). All rights reserved.